Climatologie pour Saint-Brevin les Pins
Jour • Résumé pour mars 1, 2017 Système :  Métrique    Anglais   Mixte
« - 1 jour
+ 1 jour »
Jour Semaine Mois Année Personnalisé
  Maximum : Minimum : Moyenne :
Température sous abri : 10.9 °C 8.1 °C 9.7 °C
Point de rosée : 10.6 °C 7.1 °C 8.9 °C
Humidité : 98 % 86 % 95 %
Vitesse du vent : 33.8 km/h 1.6 km/h 11.8 km/h
Rafale : 45.1 km/h - -
Direction :- - West
Pression : 1013.4 hPa 1006.0 hPa -
Précipitations : 9.9 mm    
Historical Graphs
 
 
Tableau de données pour mars 1, 2017
Heure Tempé Pt rosée Pression Vent Vitesse Rafale Humidité Taux pluie (/hr) Soleil
00:00 8.7 °C 7.3 °C 1008.4 hPa WNW 16.1 km/h 25.7 km/h 91 % 0.3 mm 0 W/m2
00:10 8.8 °C 7.6 °C 1008.4 hPa West 14.5 km/h 37.0 km/h 92 % 0.3 mm 0 W/m2
00:15 8.9 °C 7.5 °C 1008.4 hPa WNW 9.7 km/h 30.6 km/h 91 % 0.3 mm 0 W/m2
00:20 8.9 °C 7.5 °C 1008.4 hPa WNW 19.3 km/h 29.0 km/h 91 % 0.3 mm 0 W/m2
00:25 9.0 °C 7.4 °C 1008.4 hPa WNW 11.3 km/h 29.0 km/h 90 % 0.3 mm 0 W/m2
00:30 9.0 °C 7.4 °C 1008.4 hPa NW 17.7 km/h 24.1 km/h 90 % 0.0 mm 0 W/m2
00:35 8.9 °C 7.6 °C 1008.4 hPa NW 17.7 km/h 25.7 km/h 91 % 0.0 mm 0 W/m2
00:40 9.0 °C 7.6 °C 1008.4 hPa West 17.7 km/h 25.7 km/h 91 % 0.3 mm 0 W/m2
00:45 8.9 °C 7.7 °C 1008.4 hPa West 14.5 km/h 24.1 km/h 92 % 0.3 mm 0 W/m2
00:50 8.8 °C 7.6 °C 1008.7 hPa West 20.9 km/h 29.0 km/h 92 % 0.5 mm 0 W/m2
00:55 8.8 °C 7.8 °C 1008.7 hPa WNW 8.0 km/h 29.0 km/h 93 % 0.5 mm 0 W/m2
01:00 8.7 °C 7.7 °C 1008.7 hPa WNW 17.7 km/h 24.1 km/h 93 % 0.5 mm 0 W/m2
01:05 8.7 °C 7.7 °C 1008.7 hPa NW 17.7 km/h 24.1 km/h 93 % 0.5 mm 0 W/m2
01:10 8.7 °C 7.7 °C 1008.7 hPa WNW 6.4 km/h 24.1 km/h 93 % 0.5 mm 0 W/m2
01:15 8.7 °C 7.6 °C 1008.7 hPa West 17.7 km/h 24.1 km/h 93 % 0.5 mm 0 W/m2
01:20 8.7 °C 7.6 °C 1008.7 hPa NW 4.8 km/h 24.1 km/h 93 % 0.5 mm 0 W/m2
01:25 8.7 °C 7.6 °C 1008.7 hPa West 4.8 km/h 20.9 km/h 93 % 0.5 mm 0 W/m2
01:30 8.8 °C 7.7 °C 1008.7 hPa WNW 8.0 km/h 14.5 km/h 93 % 0.5 mm 0 W/m2
01:35 8.9 °C 7.8 °C 1008.7 hPa WNW 19.3 km/h 24.1 km/h 93 % 0.5 mm 0 W/m2
01:40 9.0 °C 7.8 °C 1008.7 hPa WNW 8.0 km/h 24.1 km/h 92 % 0.3 mm 0 W/m2
01:45 9.1 °C 7.8 °C 1008.7 hPa NW 8.0 km/h 19.3 km/h 92 % 0.3 mm 0 W/m2
01:50 8.9 °C 7.7 °C 1008.7 hPa WNW 11.3 km/h 19.3 km/h 92 % 0.0 mm 0 W/m2
01:55 8.9 °C 7.5 °C 1008.7 hPa WNW 9.7 km/h 19.3 km/h 91 % 0.0 mm 0 W/m2
02:00 8.8 °C 7.6 °C 1008.7 hPa NW 17.7 km/h 19.3 km/h 92 % 0.0 mm 0 W/m2
02:05 8.8 °C 7.6 °C 1008.7 hPa West 12.9 km/h 20.9 km/h 92 % 0.0 mm 0 W/m2
02:10 8.9 °C 7.7 °C 1008.7 hPa NW 14.5 km/h 20.9 km/h 92 % 0.0 mm 0 W/m2
02:15 9.0 °C 7.8 °C 1008.7 hPa NW 6.4 km/h 20.9 km/h 92 % 0.0 mm 0 W/m2
02:20 9.1 °C 7.8 °C 1008.7 hPa WSW 4.8 km/h 24.1 km/h 92 % 0.0 mm 0 W/m2
02:25 9.2 °C 7.8 °C 1008.7 hPa WNW 12.9 km/h 24.1 km/h 91 % 0.3 mm 0 W/m2
02:30 9.3 °C 7.7 °C 1008.7 hPa WNW 9.7 km/h 29.0 km/h 90 % 0.3 mm 0 W/m2
02:40 9.3 °C 7.8 °C 1008.7 hPa West 8.0 km/h 25.7 km/h 90 % 0.3 mm 0 W/m2
02:45 9.4 °C 7.7 °C 1008.7 hPa WNW 12.9 km/h 25.7 km/h 89 % 0.3 mm 0 W/m2
02:50 9.4 °C 7.7 °C 1008.7 hPa West 14.5 km/h 25.7 km/h 89 % 0.3 mm 0 W/m2
02:55 9.4 °C 7.6 °C 1008.7 hPa WNW 17.7 km/h 29.0 km/h 88 % 0.3 mm 0 W/m2
03:00 9.5 °C 7.6 °C 1008.7 hPa West 9.7 km/h 29.0 km/h 88 % 0.3 mm 0 W/m2
03:05 9.5 °C 7.6 °C 1008.7 hPa WNW 9.7 km/h 27.4 km/h 88 % 0.3 mm 0 W/m2
03:10 9.5 °C 7.4 °C 1008.7 hPa WNW 14.5 km/h 24.1 km/h 87 % 0.3 mm 0 W/m2
03:15 9.5 °C 7.4 °C 1008.7 hPa NW 12.9 km/h 24.1 km/h 87 % 0.3 mm 0 W/m2
03:20 9.5 °C 7.4 °C 1008.7 hPa WNW 3.2 km/h 24.1 km/h 87 % 0.3 mm 0 W/m2
03:25 9.4 °C 7.5 °C 1008.4 hPa WNW 11.3 km/h 22.5 km/h 88 % 0.0 mm 0 W/m2
03:30 9.4 °C 7.6 °C 1008.4 hPa WSW 12.9 km/h 24.1 km/h 88 % 0.0 mm 0 W/m2
03:40 9.4 °C 7.4 °C 1008.4 hPa WNW 14.5 km/h 20.9 km/h 87 % 0.0 mm 0 W/m2
03:45 9.4 °C 7.4 °C 1008.4 hPa West 19.3 km/h 25.7 km/h 87 % 0.0 mm 0 W/m2
03:50 9.5 °C 7.4 °C 1008.4 hPa West 8.0 km/h 27.4 km/h 87 % 0.0 mm 0 W/m2
03:55 9.6 °C 7.3 °C 1008.4 hPa West 9.7 km/h 27.4 km/h 86 % 0.0 mm 0 W/m2
04:00 9.5 °C 7.3 °C 1008.4 hPa WNW 11.3 km/h 24.1 km/h 86 % 0.0 mm 0 W/m2
04:10 9.6 °C 7.3 °C 1008.4 hPa WSW 4.8 km/h 22.5 km/h 86 % 0.0 mm 0 W/m2
04:20 9.5 °C 7.4 °C 1008.4 hPa WSW 12.9 km/h 19.3 km/h 87 % 0.0 mm 0 W/m2
04:25 9.5 °C 7.4 °C 1008.4 hPa WNW 8.0 km/h 19.3 km/h 87 % 0.0 mm 0 W/m2
04:30 9.5 °C 7.4 °C 1008.4 hPa West 6.4 km/h 24.1 km/h 87 % 0.0 mm 0 W/m2
04:35 9.4 °C 7.4 °C 1008.4 hPa WSW 9.7 km/h 24.1 km/h 87 % 0.0 mm 0 W/m2
04:40 9.4 °C 7.6 °C 1008.4 hPa West 4.8 km/h 19.3 km/h 88 % 0.0 mm 0 W/m2
04:45 9.4 °C 7.6 °C 1008.0 hPa WSW 6.4 km/h 20.9 km/h 88 % 0.0 mm 0 W/m2
04:50 9.4 °C 7.6 °C 1008.0 hPa WSW 8.0 km/h 20.9 km/h 88 % 0.0 mm 0 W/m2
04:55 9.4 °C 7.7 °C 1008.0 hPa SW 12.9 km/h 20.9 km/h 89 % 0.0 mm 0 W/m2
05:00 9.4 °C 7.7 °C 1008.0 hPa WSW 9.7 km/h 20.9 km/h 89 % 0.0 mm 0 W/m2
05:05 9.4 °C 7.5 °C 1008.0 hPa WSW 12.9 km/h 19.3 km/h 88 % 0.0 mm 0 W/m2
05:10 9.4 °C 7.7 °C 1008.0 hPa WSW 8.0 km/h 17.7 km/h 89 % 0.0 mm 0 W/m2
05:15 9.4 °C 7.7 °C 1008.0 hPa West 20.9 km/h 30.6 km/h 89 % 0.0 mm 0 W/m2
05:20 9.3 °C 7.7 °C 1008.4 hPa WSW 12.9 km/h 32.2 km/h 90 % 0.0 mm 0 W/m2
05:25 9.0 °C 7.6 °C 1008.4 hPa WSW 8.0 km/h 32.2 km/h 91 % 0.0 mm 0 W/m2
05:30 8.8 °C 7.6 °C 1008.4 hPa West 12.9 km/h 25.7 km/h 92 % 0.0 mm 0 W/m2
05:40 8.6 °C 7.5 °C 1008.4 hPa WSW 17.7 km/h 30.6 km/h 93 % 0.0 mm 0 W/m2
05:45 8.6 °C 7.5 °C 1008.0 hPa SW 12.9 km/h 30.6 km/h 93 % 0.0 mm 0 W/m2
05:50 8.5 °C 7.6 °C 1008.0 hPa WSW 9.7 km/h 22.5 km/h 94 % 0.0 mm 0 W/m2
05:55 8.4 °C 7.5 °C 1008.0 hPa WSW 4.8 km/h 20.9 km/h 94 % 0.0 mm 0 W/m2
06:00 8.4 °C 7.5 °C 1008.0 hPa WSW 11.3 km/h 19.3 km/h 94 % 0.0 mm 0 W/m2
06:10 8.4 °C 7.6 °C 1008.0 hPa WSW 9.7 km/h 19.3 km/h 95 % 0.3 mm 0 W/m2
06:15 8.4 °C 7.6 °C 1008.0 hPa West 6.4 km/h 22.5 km/h 95 % 0.3 mm 0 W/m2
06:20 8.4 °C 7.6 °C 1008.0 hPa SW 11.3 km/h 22.5 km/h 95 % 0.3 mm 0 W/m2
06:25 8.4 °C 7.7 °C 1008.0 hPa WSW 16.1 km/h 20.9 km/h 95 % 0.3 mm 0 W/m2
06:30 8.4 °C 7.6 °C 1008.0 hPa WSW 14.5 km/h 20.9 km/h 95 % 0.5 mm 0 W/m2
06:40 8.3 °C 7.6 °C 1008.0 hPa WSW 9.7 km/h 22.5 km/h 95 % 0.5 mm 0 W/m2
06:45 8.3 °C 7.5 °C 1008.0 hPa WSW 11.3 km/h 14.5 km/h 95 % 0.5 mm 0 W/m2
06:50 8.3 °C 7.7 °C 1008.0 hPa West 1.6 km/h 12.9 km/h 96 % 0.8 mm 0 W/m2
06:55 8.2 °C 7.6 °C 1008.0 hPa SSW 3.2 km/h 11.3 km/h 96 % 1.0 mm 0 W/m2
07:00 8.2 °C 7.6 °C 1008.0 hPa WSW 8.0 km/h 14.5 km/h 96 % 1.3 mm 0 W/m2
07:10 8.2 °C 7.6 °C 1007.7 hPa South 3.2 km/h 8.0 km/h 96 % 1.3 mm 0 W/m2
07:15 8.1 °C 7.5 °C 1007.7 hPa South 1.6 km/h 8.0 km/h 96 % 1.3 mm 0 W/m2
07:20 8.1 °C 7.5 °C 1007.3 hPa SSW 3.2 km/h 8.0 km/h 96 % 1.5 mm 0 W/m2
07:25 8.1 °C 7.7 °C 1007.3 hPa SSW 4.8 km/h 8.0 km/h 97 % 1.5 mm 0 W/m2
07:30 8.2 °C 7.7 °C 1007.3 hPa SSE 4.8 km/h 12.9 km/h 97 % 1.5 mm 0 W/m2
07:40 8.2 °C 7.7 °C 1007.3 hPa SSW 4.8 km/h 14.5 km/h 97 % 1.5 mm 0 W/m2
07:45 8.2 °C 7.8 °C 1007.0 hPa South 9.7 km/h 16.1 km/h 97 % 1.5 mm 0 W/m2
07:50 8.2 °C 7.8 °C 1007.0 hPa SSW 6.4 km/h 16.1 km/h 97 % 1.5 mm 0 W/m2
07:55 8.3 °C 7.8 °C 1007.0 hPa South 14.5 km/h 17.7 km/h 97 % 1.5 mm 0 W/m2
08:00 8.3 °C 7.9 °C 1007.0 hPa SSW 14.5 km/h 24.1 km/h 97 % 1.5 mm 0 W/m2
08:05 8.4 °C 7.9 °C 1007.0 hPa South 16.1 km/h 24.1 km/h 97 % 1.5 mm 0 W/m2
08:10 8.4 °C 8.0 °C 1007.0 hPa SSE 9.7 km/h 27.4 km/h 97 % 1.5 mm 5 W/m2
08:15 8.5 °C 8.1 °C 1007.0 hPa SSE 9.7 km/h 27.4 km/h 97 % 1.5 mm 0 W/m2
08:20 8.6 °C 8.1 °C 1007.0 hPa SSW 14.5 km/h 20.9 km/h 97 % 1.5 mm 5 W/m2
08:25 8.7 °C 8.2 °C 1007.0 hPa SSW 4.8 km/h 24.1 km/h 97 % 1.3 mm 5 W/m2
08:30 8.7 °C 8.3 °C 1006.7 hPa South 12.9 km/h 24.1 km/h 97 % 1.3 mm 9 W/m2
08:35 8.8 °C 8.4 °C 1006.7 hPa WSW 12.9 km/h 22.5 km/h 97 % 1.3 mm 12 W/m2
08:40 9.1 °C 8.6 °C 1006.7 hPa SW 11.3 km/h 20.9 km/h 97 % 1.3 mm 11 W/m2
08:45 9.3 °C 9.0 °C 1006.7 hPa South 14.5 km/h 16.1 km/h 98 % 1.3 mm 18 W/m2
08:50 9.3 °C 8.9 °C 1006.7 hPa SSW 11.3 km/h 25.7 km/h 97 % 1.0 mm 23 W/m2
08:55 9.3 °C 8.9 °C 1006.7 hPa SSW 12.9 km/h 25.7 km/h 97 % 1.0 mm 19 W/m2
09:00 9.5 °C 9.0 °C 1006.7 hPa South 9.7 km/h 20.9 km/h 97 % 0.8 mm 16 W/m2
09:10 9.6 °C 9.2 °C 1006.7 hPa SSW 11.3 km/h 20.9 km/h 97 % 0.8 mm 21 W/m2
09:15 9.7 °C 9.3 °C 1006.7 hPa South 4.8 km/h 17.7 km/h 97 % 0.8 mm 19 W/m2
09:25 10.0 °C 9.7 °C 1006.7 hPa SW 9.7 km/h 17.7 km/h 98 % 0.5 mm 30 W/m2
09:30 10.1 °C 9.6 °C 1006.7 hPa WSW 4.8 km/h 19.3 km/h 97 % 0.5 mm 28 W/m2
09:40 10.2 °C 9.9 °C 1006.7 hPa SW 14.5 km/h 24.1 km/h 98 % 0.5 mm 67 W/m2
09:50 10.3 °C 10.0 °C 1006.7 hPa SW 8.0 km/h 24.1 km/h 98 % 0.5 mm 44 W/m2
09:55 10.3 °C 10.0 °C 1006.7 hPa SW 8.0 km/h 17.7 km/h 98 % 0.5 mm 40 W/m2
10:05 10.3 °C 10.0 °C 1006.7 hPa SW 11.3 km/h 25.7 km/h 98 % 0.5 mm 53 W/m2
10:10 10.3 °C 9.9 °C 1006.7 hPa WSW 14.5 km/h 22.5 km/h 97 % 0.3 mm 44 W/m2
10:15 10.3 °C 10.0 °C 1006.7 hPa WNW 9.7 km/h 30.6 km/h 98 % 0.5 mm 51 W/m2
10:20 10.4 °C 10.1 °C 1006.7 hPa WSW 3.2 km/h 30.6 km/h 98 % 0.5 mm 62 W/m2
10:25 10.5 °C 10.0 °C 1006.7 hPa WSW 27.4 km/h 27.4 km/h 97 % 0.5 mm 79 W/m2
10:30 10.6 °C 10.3 °C 1006.7 hPa NW 14.5 km/h 29.0 km/h 98 % 0.3 mm 79 W/m2
10:35 10.6 °C 10.3 °C 1006.7 hPa West 8.0 km/h 29.0 km/h 98 % 0.3 mm 91 W/m2
10:40 10.6 °C 10.3 °C 1006.7 hPa WSW 12.9 km/h 27.4 km/h 98 % 0.5 mm 116 W/m2
10:45 10.6 °C 10.3 °C 1006.7 hPa West 9.7 km/h 25.7 km/h 98 % 0.5 mm 91 W/m2
10:50 10.6 °C 10.2 °C 1006.7 hPa West 8.0 km/h 25.7 km/h 97 % 0.5 mm 72 W/m2
10:55 10.6 °C 10.2 °C 1006.7 hPa SW 12.9 km/h 24.1 km/h 97 % 0.5 mm 86 W/m2
11:00 10.6 °C 10.2 °C 1006.7 hPa WSW 9.7 km/h 29.0 km/h 97 % 0.5 mm 76 W/m2
11:05 10.6 °C 10.2 °C 1006.7 hPa WSW 25.7 km/h 35.4 km/h 97 % 0.5 mm 100 W/m2
11:10 10.7 °C 10.2 °C 1007.0 hPa WNW 11.3 km/h 35.4 km/h 97 % 0.5 mm 84 W/m2
11:15 10.7 °C 10.2 °C 1006.7 hPa WSW 14.5 km/h 24.1 km/h 97 % 0.5 mm 60 W/m2
11:20 10.6 °C 10.2 °C 1006.7 hPa SW 12.9 km/h 32.2 km/h 97 % 0.5 mm 54 W/m2
11:25 10.6 °C 10.2 °C 1007.0 hPa West 19.3 km/h 32.2 km/h 97 % 0.5 mm 53 W/m2
11:30 10.6 °C 10.2 °C 1006.7 hPa WSW 19.3 km/h 27.4 km/h 97 % 0.5 mm 72 W/m2
11:40 10.7 °C 10.2 °C 1006.7 hPa WSW 11.3 km/h 29.0 km/h 97 % 0.8 mm 91 W/m2
11:45 10.7 °C 10.2 °C 1007.0 hPa WNW 12.9 km/h 32.2 km/h 97 % 0.8 mm 88 W/m2
11:50 10.7 °C 10.2 °C 1006.7 hPa West 11.3 km/h 32.2 km/h 97 % 0.8 mm 76 W/m2
11:55 10.7 °C 10.2 °C 1006.7 hPa WSW 14.5 km/h 33.8 km/h 97 % 0.8 mm 79 W/m2
12:00 10.7 °C 10.2 °C 1006.7 hPa West 19.3 km/h 35.4 km/h 97 % 1.0 mm 72 W/m2
12:05 10.7 °C 10.2 °C 1006.7 hPa SW 20.9 km/h 35.4 km/h 97 % 0.8 mm 60 W/m2
12:10 10.7 °C 10.2 °C 1006.7 hPa West 8.0 km/h 35.4 km/h 97 % 0.8 mm 54 W/m2
12:15 10.7 °C 10.2 °C 1007.0 hPa WSW 17.7 km/h 35.4 km/h 97 % 1.0 mm 62 W/m2
12:20 10.7 °C 10.4 °C 1007.0 hPa West 8.0 km/h 35.4 km/h 98 % 1.0 mm 63 W/m2
12:25 10.6 °C 10.3 °C 1006.7 hPa WSW 17.7 km/h 32.2 km/h 98 % 0.8 mm 67 W/m2
12:30 10.6 °C 10.3 °C 1006.7 hPa WNW 11.3 km/h 27.4 km/h 98 % 1.0 mm 72 W/m2
12:40 10.7 °C 10.4 °C 1006.7 hPa WSW 14.5 km/h 30.6 km/h 98 % 0.5 mm 74 W/m2
12:45 10.7 °C 10.4 °C 1007.0 hPa WSW 11.3 km/h 35.4 km/h 98 % 0.8 mm 81 W/m2
12:50 10.7 °C 10.4 °C 1007.0 hPa SW 12.9 km/h 35.4 km/h 98 % 0.8 mm 72 W/m2
12:55 10.7 °C 10.3 °C 1006.7 hPa WSW 9.7 km/h 33.8 km/h 97 % 0.8 mm 118 W/m2
13:00 10.8 °C 10.3 °C 1006.7 hPa WSW 8.0 km/h 37.0 km/h 97 % 0.5 mm 105 W/m2
13:05 10.8 °C 10.4 °C 1006.7 hPa WNW 19.3 km/h 37.0 km/h 97 % 0.5 mm 120 W/m2
13:10 10.9 °C 10.6 °C 1006.7 hPa WSW 14.5 km/h 37.0 km/h 98 % 0.8 mm 104 W/m2
13:15 10.9 °C 10.6 °C 1006.7 hPa WSW 12.9 km/h 33.8 km/h 98 % 0.5 mm 91 W/m2
13:20 10.8 °C 10.4 °C 1006.7 hPa SW 16.1 km/h 33.8 km/h 97 % 0.5 mm 104 W/m2
13:25 10.8 °C 10.4 °C 1006.7 hPa West 12.9 km/h 35.4 km/h 97 % 0.8 mm 107 W/m2
13:30 10.8 °C 10.3 °C 1006.3 hPa SW 17.7 km/h 35.4 km/h 97 % 0.5 mm 90 W/m2
13:35 10.8 °C 10.3 °C 1006.3 hPa SW 12.9 km/h 37.0 km/h 97 % 0.5 mm 100 W/m2
13:40 10.8 °C 10.3 °C 1006.3 hPa SW 11.3 km/h 37.0 km/h 97 % 0.5 mm 109 W/m2
13:45 10.8 °C 10.4 °C 1006.3 hPa WSW 30.6 km/h 32.2 km/h 97 % 0.5 mm 86 W/m2
13:50 10.8 °C 10.3 °C 1006.3 hPa SSW 8.0 km/h 33.8 km/h 97 % 0.5 mm 84 W/m2
13:55 10.8 °C 10.3 °C 1006.3 hPa West 16.1 km/h 33.8 km/h 97 % 0.5 mm 100 W/m2
14:00 10.8 °C 10.3 °C 1006.3 hPa West 19.3 km/h 33.8 km/h 97 % 0.5 mm 98 W/m2
14:05 10.7 °C 10.3 °C 1006.3 hPa WSW 20.9 km/h 41.8 km/h 97 % 0.5 mm 97 W/m2
14:10 10.7 °C 10.3 °C 1006.3 hPa SW 14.5 km/h 41.8 km/h 97 % 0.5 mm 81 W/m2
14:15 10.7 °C 10.4 °C 1006.3 hPa West 16.1 km/h 35.4 km/h 98 % 0.5 mm 65 W/m2
14:20 10.7 °C 10.4 °C 1006.3 hPa WSW 14.5 km/h 35.4 km/h 98 % 0.5 mm 53 W/m2
14:25 10.7 °C 10.4 °C 1006.3 hPa WSW 20.9 km/h 32.2 km/h 98 % 0.3 mm 62 W/m2
14:30 10.6 °C 10.3 °C 1006.3 hPa West 16.1 km/h 32.2 km/h 98 % 0.3 mm 65 W/m2
14:40 10.6 °C 10.3 °C 1006.0 hPa WSW 12.9 km/h 40.2 km/h 98 % 0.3 mm 60 W/m2
14:45 10.6 °C 10.3 °C 1006.0 hPa WSW 9.7 km/h 37.0 km/h 98 % 0.3 mm 67 W/m2
14:50 10.6 °C 10.3 °C 1006.0 hPa West 9.7 km/h 33.8 km/h 98 % 0.3 mm 72 W/m2
14:55 10.7 °C 10.4 °C 1006.0 hPa WSW 3.2 km/h 38.6 km/h 98 % 0.3 mm 72 W/m2
15:00 10.7 °C 10.4 °C 1006.0 hPa West 6.4 km/h 38.6 km/h 98 % 0.3 mm 83 W/m2
15:05 10.7 °C 10.4 °C 1006.0 hPa WSW 9.7 km/h 38.6 km/h 98 % 0.3 mm 72 W/m2
15:10 10.7 °C 10.4 °C 1006.0 hPa WSW 20.9 km/h 38.6 km/h 98 % 0.0 mm 63 W/m2
15:15 10.7 °C 10.4 °C 1006.0 hPa West 22.5 km/h 35.4 km/h 98 % 0.3 mm 60 W/m2
15:20 10.7 °C 10.4 °C 1006.0 hPa WSW 14.5 km/h 35.4 km/h 98 % 0.3 mm 83 W/m2
15:25 10.7 °C 10.4 °C 1006.0 hPa WSW 14.5 km/h 32.2 km/h 98 % 0.3 mm 58 W/m2
15:30 10.7 °C 10.4 °C 1006.0 hPa WSW 8.0 km/h 35.4 km/h 98 % 0.3 mm 62 W/m2
15:35 10.7 °C 10.4 °C 1006.0 hPa WSW 8.0 km/h 35.4 km/h 98 % 0.3 mm 63 W/m2
15:40 10.7 °C 10.4 °C 1006.3 hPa West 19.3 km/h 32.2 km/h 98 % 0.3 mm 62 W/m2
15:45 10.7 °C 10.4 °C 1006.0 hPa SW 25.7 km/h 33.8 km/h 98 % 0.5 mm 63 W/m2
15:50 10.7 °C 10.4 °C 1006.0 hPa West 24.1 km/h 33.8 km/h 98 % 0.5 mm 60 W/m2
15:55 10.7 °C 10.4 °C 1006.0 hPa WNW 16.1 km/h 33.8 km/h 98 % 0.5 mm 58 W/m2
16:00 10.7 °C 10.4 °C 1006.0 hPa West 17.7 km/h 43.4 km/h 98 % 0.5 mm 56 W/m2
16:05 10.7 °C 10.4 °C 1006.0 hPa West 25.7 km/h 43.4 km/h 98 % 0.5 mm 53 W/m2
16:10 10.7 °C 10.4 °C 1006.3 hPa WSW 17.7 km/h 37.0 km/h 98 % 0.5 mm 51 W/m2
16:15 10.7 °C 10.4 °C 1006.3 hPa West 11.3 km/h 37.0 km/h 98 % 0.5 mm 51 W/m2
16:20 10.7 °C 10.4 °C 1006.3 hPa WSW 29.0 km/h 32.2 km/h 98 % 0.5 mm 44 W/m2
16:25 10.7 °C 10.4 °C 1006.3 hPa West 14.5 km/h 33.8 km/h 98 % 0.8 mm 46 W/m2
16:30 10.7 °C 10.4 °C 1006.3 hPa West 11.3 km/h 33.8 km/h 98 % 0.8 mm 42 W/m2
16:35 10.7 °C 10.4 °C 1006.3 hPa WSW 12.9 km/h 45.1 km/h 98 % 0.8 mm 56 W/m2
16:40 10.7 °C 10.4 °C 1006.3 hPa West 20.9 km/h 45.1 km/h 98 % 0.8 mm 47 W/m2
16:45 10.7 °C 10.4 °C 1006.3 hPa WSW 17.7 km/h 35.4 km/h 98 % 0.8 mm 44 W/m2
16:50 10.7 °C 10.4 °C 1006.3 hPa NW 11.3 km/h 33.8 km/h 98 % 0.8 mm 37 W/m2
16:55 10.7 °C 10.4 °C 1006.3 hPa WSW 16.1 km/h 40.2 km/h 98 % 0.5 mm 35 W/m2
17:00 10.7 °C 10.4 °C 1006.3 hPa WSW 22.5 km/h 40.2 km/h 98 % 0.5 mm 28 W/m2
17:05 10.7 °C 10.4 °C 1006.7 hPa West 20.9 km/h 38.6 km/h 98 % 0.5 mm 32 W/m2
17:15 10.7 °C 10.4 °C 1006.7 hPa WNW 12.9 km/h 38.6 km/h 98 % 0.5 mm 32 W/m2
17:20 10.7 °C 10.4 °C 1006.7 hPa WSW 9.7 km/h 40.2 km/h 98 % 0.5 mm 26 W/m2
17:25 10.6 °C 10.3 °C 1006.7 hPa WNW 14.5 km/h 40.2 km/h 98 % 0.5 mm 19 W/m2
17:30 10.6 °C 10.3 °C 1006.7 hPa West 17.7 km/h 33.8 km/h 98 % 0.5 mm 16 W/m2
17:35 10.6 °C 10.3 °C 1006.7 hPa West 33.8 km/h 41.8 km/h 98 % 0.5 mm 16 W/m2
17:40 10.6 °C 10.3 °C 1007.0 hPa WSW 30.6 km/h 41.8 km/h 98 % 0.8 mm 16 W/m2
17:45 10.6 °C 10.3 °C 1007.0 hPa WNW 17.7 km/h 40.2 km/h 98 % 0.5 mm 19 W/m2
17:50 10.6 °C 10.3 °C 1007.0 hPa WNW 11.3 km/h 40.2 km/h 98 % 0.8 mm 16 W/m2
17:55 10.6 °C 10.3 °C 1007.0 hPa NW 12.9 km/h 25.7 km/h 98 % 1.0 mm 14 W/m2
18:00 10.7 °C 10.4 °C 1007.3 hPa NW 11.3 km/h 30.6 km/h 98 % 1.0 mm 11 W/m2
18:05 10.6 °C 10.3 °C 1007.3 hPa NNW 11.3 km/h 30.6 km/h 98 % 1.0 mm 18 W/m2
18:10 10.6 °C 10.3 °C 1007.3 hPa WNW 19.3 km/h 32.2 km/h 98 % 0.8 mm 28 W/m2
18:15 10.6 °C 10.3 °C 1007.3 hPa West 17.7 km/h 32.2 km/h 98 % 0.8 mm 23 W/m2
18:20 10.5 °C 10.2 °C 1007.3 hPa NW 8.0 km/h 27.4 km/h 98 % 0.8 mm 14 W/m2
18:25 10.4 °C 10.1 °C 1007.3 hPa West 8.0 km/h 27.4 km/h 98 % 1.0 mm 7 W/m2
18:30 10.3 °C 10.0 °C 1007.3 hPa WNW 6.4 km/h 20.9 km/h 98 % 1.0 mm 5 W/m2
18:40 9.9 °C 9.6 °C 1007.7 hPa West 9.7 km/h 24.1 km/h 98 % 0.5 mm 0 W/m2
18:45 9.8 °C 9.5 °C 1008.0 hPa West 9.7 km/h 24.1 km/h 98 % 0.8 mm 0 W/m2
18:50 9.8 °C 9.5 °C 1008.0 hPa NW 11.3 km/h 25.7 km/h 98 % 0.5 mm 0 W/m2
18:55 9.8 °C 9.5 °C 1008.4 hPa NW 8.0 km/h 25.7 km/h 98 % 0.5 mm 0 W/m2
19:00 9.8 °C 9.5 °C 1008.4 hPa West 8.0 km/h 19.3 km/h 98 % 0.5 mm 0 W/m2
19:05 9.7 °C 9.4 °C 1008.7 hPa West 17.7 km/h 19.3 km/h 98 % 0.5 mm 0 W/m2
19:10 9.7 °C 9.4 °C 1008.7 hPa WNW 14.5 km/h 19.3 km/h 98 % 0.5 mm 0 W/m2
19:15 9.7 °C 9.4 °C 1008.7 hPa WNW 8.0 km/h 20.9 km/h 98 % 0.5 mm 0 W/m2
19:20 9.7 °C 9.4 °C 1008.7 hPa NW 11.3 km/h 20.9 km/h 98 % 0.5 mm 0 W/m2
19:25 9.6 °C 9.3 °C 1009.0 hPa West 6.4 km/h 19.3 km/h 98 % 0.5 mm 0 W/m2
19:30 9.6 °C 9.3 °C 1009.0 hPa WNW 9.7 km/h 20.9 km/h 98 % 0.5 mm 0 W/m2
19:40 9.6 °C 9.3 °C 1009.4 hPa West 6.4 km/h 20.9 km/h 98 % 0.5 mm 0 W/m2
19:45 9.6 °C 9.3 °C 1009.4 hPa WNW 4.8 km/h 20.9 km/h 98 % 0.3 mm 0 W/m2
19:50 9.6 °C 9.3 °C 1009.7 hPa West 8.0 km/h 17.7 km/h 98 % 0.3 mm 0 W/m2
19:55 9.6 °C 9.3 °C 1009.4 hPa West 8.0 km/h 17.7 km/h 98 % 0.3 mm 0 W/m2
20:00 9.6 °C 9.3 °C 1009.4 hPa West 4.8 km/h 16.1 km/h 98 % 0.0 mm 0 W/m2
20:05 9.6 °C 9.3 °C 1009.7 hPa West 4.8 km/h 19.3 km/h 98 % 0.0 mm 0 W/m2
20:10 9.6 °C 9.3 °C 1009.7 hPa WNW 11.3 km/h 19.3 km/h 98 % 0.0 mm 0 W/m2
20:15 9.6 °C 9.3 °C 1009.7 hPa WNW 6.4 km/h 19.3 km/h 98 % 0.0 mm 0 W/m2
20:20 9.6 °C 9.3 °C 1009.7 hPa NW 11.3 km/h 19.3 km/h 98 % 0.0 mm 0 W/m2
20:25 9.6 °C 9.3 °C 1010.0 hPa West 8.0 km/h 24.1 km/h 98 % 0.0 mm 0 W/m2
20:30 9.6 °C 9.3 °C 1009.7 hPa WNW 8.0 km/h 24.1 km/h 98 % 0.0 mm 0 W/m2
20:40 9.6 °C 9.3 °C 1010.4 hPa WNW 6.4 km/h 17.7 km/h 98 % 0.0 mm 0 W/m2
20:45 9.5 °C 9.0 °C 1010.0 hPa WNW 4.8 km/h 19.3 km/h 97 % 0.0 mm 0 W/m2
20:50 9.5 °C 9.0 °C 1010.4 hPa West 11.3 km/h 19.3 km/h 97 % 0.0 mm 0 W/m2
20:55 9.4 °C 9.0 °C 1010.4 hPa WNW 12.9 km/h 19.3 km/h 97 % 0.0 mm 0 W/m2
21:00 9.4 °C 8.9 °C 1010.4 hPa WNW 16.1 km/h 29.0 km/h 97 % 0.0 mm 0 W/m2
21:05 9.3 °C 8.9 °C 1010.4 hPa West 8.0 km/h 29.0 km/h 97 % 0.0 mm 0 W/m2
21:15 9.2 °C 8.8 °C 1010.7 hPa WNW 4.8 km/h 20.9 km/h 97 % 0.0 mm 0 W/m2
21:20 9.2 °C 8.6 °C 1010.7 hPa West 6.4 km/h 20.9 km/h 96 % 0.0 mm 0 W/m2
21:25 9.2 °C 8.6 °C 1011.1 hPa WNW 6.4 km/h 14.5 km/h 96 % 0.0 mm 0 W/m2
21:30 9.2 °C 8.6 °C 1011.1 hPa WNW 9.7 km/h 17.7 km/h 96 % 0.0 mm 0 W/m2
21:35 9.1 °C 8.5 °C 1011.1 hPa WNW 4.8 km/h 17.7 km/h 96 % 0.0 mm 0 W/m2
21:40 9.1 °C 8.5 °C 1011.1 hPa West 8.0 km/h 19.3 km/h 96 % 0.0 mm 0 W/m2
21:50 9.0 °C 8.2 °C 1011.4 hPa NW 8.0 km/h 14.5 km/h 95 % 0.0 mm 0 W/m2
21:55 9.0 °C 8.2 °C 1011.7 hPa NW 11.3 km/h 14.5 km/h 95 % 0.0 mm 0 W/m2
22:00 9.0 °C 8.2 °C 1011.7 hPa WNW 6.4 km/h 14.5 km/h 95 % 0.0 mm 0 W/m2
22:05 9.0 °C 8.1 °C 1011.7 hPa West 4.8 km/h 16.1 km/h 94 % 0.0 mm 0 W/m2
22:10 9.0 °C 8.1 °C 1012.1 hPa WNW 8.0 km/h 16.1 km/h 94 % 0.0 mm 0 W/m2
22:15 8.9 °C 7.9 °C 1012.1 hPa West 6.4 km/h 14.5 km/h 93 % 0.0 mm 0 W/m2
22:20 8.9 °C 7.8 °C 1012.1 hPa NW 3.2 km/h 14.5 km/h 93 % 0.0 mm 0 W/m2
22:25 8.8 °C 7.8 °C 1012.4 hPa West 8.0 km/h 14.5 km/h 93 % 0.0 mm 0 W/m2
22:30 8.8 °C 7.7 °C 1012.4 hPa West 9.7 km/h 14.5 km/h 93 % 0.0 mm 0 W/m2
22:35 8.8 °C 7.8 °C 1012.4 hPa WSW 8.0 km/h 14.5 km/h 93 % 0.0 mm 0 W/m2
22:40 8.8 °C 7.8 °C 1012.4 hPa West 11.3 km/h 14.5 km/h 93 % 0.0 mm 0 W/m2
22:45 8.7 °C 7.7 °C 1012.8 hPa NW 4.8 km/h 14.5 km/h 93 % 0.0 mm 0 W/m2
22:50 8.7 °C 7.7 °C 1012.8 hPa West 6.4 km/h 12.9 km/h 93 % 0.0 mm 0 W/m2
22:55 8.7 °C 7.6 °C 1012.8 hPa West 4.8 km/h 17.7 km/h 93 % 0.0 mm 0 W/m2
23:00 8.7 °C 7.6 °C 1013.1 hPa WNW 6.4 km/h 17.7 km/h 93 % 0.0 mm 0 W/m2
23:05 8.8 °C 7.5 °C 1013.1 hPa West 8.0 km/h 14.5 km/h 92 % 0.0 mm 0 W/m2
23:10 8.7 °C 7.5 °C 1013.1 hPa WNW 6.4 km/h 11.3 km/h 92 % 0.0 mm 0 W/m2
23:15 8.7 °C 7.5 °C 1013.1 hPa NW 6.4 km/h 11.3 km/h 92 % 0.0 mm 0 W/m2
23:20 8.8 °C 7.8 °C 1013.1 hPa West 19.3 km/h 25.7 km/h 93 % 0.0 mm 0 W/m2
23:25 9.1 °C 7.8 °C 1013.1 hPa NW 12.9 km/h 25.7 km/h 92 % 0.0 mm 0 W/m2
23:30 9.1 °C 7.8 °C 1013.1 hPa WNW 6.4 km/h 20.9 km/h 92 % 0.0 mm 0 W/m2
23:35 9.1 °C 7.7 °C 1013.4 hPa WNW 6.4 km/h 19.3 km/h 91 % 0.0 mm 0 W/m2
23:40 8.9 °C 7.6 °C 1013.1 hPa WNW 6.4 km/h 17.7 km/h 91 % 0.0 mm 0 W/m2
23:45 8.8 °C 7.4 °C 1013.4 hPa WNW 11.3 km/h 12.9 km/h 91 % 0.0 mm 0 W/m2
23:50 8.8 °C 7.4 °C 1013.4 hPa NW 11.3 km/h 25.7 km/h 91 % 0.0 mm 0 W/m2
23:55 8.7 °C 7.1 °C 1013.4 hPa West 12.9 km/h 25.7 km/h 90 % 0.0 mm 0 W/m2
Avec l'autorisation de Weather Underground - 1.5 mb